SCP
0 0 0 0 0 0 0 0 0 0 0 0 0 0 0 0 0 0 0 0 0 0 0 0 0 0 0 0 0 0 0 0 0 0 0 0 0 0 0 0 0 0 0
0 0 0 0 0 0 0 0 0 0 0 0 0 0 0 0 0 0 0 0 0 0 0 -0 -0 0 0 0 0 0 0 0 0 0 0 0 0 0 0 0 0 0 0
0 0 0 0 0 0 0 0 0 0 0 0 0 0 0 0 0 0 0 0 0 0 -0 -0 -0 -0 0 0 0 0 0 0 0 0 0 0 0 0 0 0 0 0 0
1 0 0 0 0 0 0 0 0 0 0 0 0 0 0 0 0 0 0 0 0 0 -0 -0 -0 -0 -0 -0 0 0 0 0 0 0 0 0 0 0 0 0 0 0 0
1 1 1 1 1 0 0 0 0 0 0 0 0 0 0 0 0 0 0 0 0 0 -0 -0 -0 -0 -0 -0 -0 0 0 0 0 0 0 0 0 0 0 0 0 0 0
1 1 1 1 1 0 0 0 0 0 0 0 0 0 0 0 0 0 0 0 0 0 -0 -0 -0 -0 -0 -0 -0 0 0 0 0 0 0 0 0 0 0 0 0 0 0
1 1 1 1 1 1 0 0 0 0 0 0 0 0 0 0 0 0 0 0 0 -0 -0 -0 -0 -0 -0 -0 0 0 0 0 0 0 0 0 0 0 0 0 0 0 0
1 1 1 1 1 1 0 0 0 0 0 0 0 0 0 0 0 0 0 0 -0 -0 -0 -0 -0 -0 -0 -0 0 0 0 0 0 0 0 0 0 0 0 0 0 0 0
1 1 1 1 1 1 0 0 0 0 0 0 0 0 0 0 0 0 0 0 0 -0 -0 -0 -0 -0 -0 -0 0 0 0 0 0 0 0 0 0 0 0 0 0 0 0
1 1 1 1 1 1 0 0 0 0 0 0 0 0 0 0 0 0 0 0 0 0 -0 -0 -0 -0 -0 -0 0 0 0 0 0 0 0 0 0 0 0 0 0 0 0
1 1 1 1 1 1 0 0 0 0 0 0 0 -0 -0 -0 -0 -0 -0 0 0 0 0 -0 -0 -0 -0 0 0 0 0 0 0 0 0 0 0 0 0 0 0 0 0
1 1 1 1 1 1 0 0 0 0 0 -0 -0 -0 -0 -0 -0 -0 -0 0 0 0 0 0 0 0 0 0 0 0 0 0 0 0 0 0 0 0 0 0 0 0 0
1 1 1 1 1 0 0 0 0 0 -0 -0 -0 -0 -0 -0 -0 -0 -0 -0 0 0 0 0 0 0 0 0 0 0 0 0 0 0 0 0 0 0 0 0 0 0 0
1 1 1 0 0 0 0 0 0 0 -0 -0 -0 -0 -0 -0 -0 -0 -0 -0 -0 -0 -0 0 0 0 0 0 0 0 0 0 0 0 0 0 0 0 0 0 0 0 0
1 1 1 0 0 0 0 0 0 0 -0 -0 -0 -0 -0 -0 0 0 0 0 -0 -0 0 0 0 0 0 0 0 0 0 0 0 0 0 0 0 0 0 0 0 0 0
1 1 1 1 0 0 0 0 0 0 0 -0 -0 -0 0 0 0 0 0 0 0 0 0 0 0 0 0 0 0 0 0 0 0 0 0 0 0 0 0 0 0 0 0
1 1 1 1 1 0 0 0 0 0 0 0 0 0 0 0 0 0 0 0 0 0 0 0 0 0 0 0 0 0 0 0 0 0 0 -0 0 0 0 0 0 0 0
1 1 1 1 1 1 0 0 0 0 0 0 0 0 0 0 0 0 0 0 0 0 0 0 0 0 0 0 0 0 0 0 0 0 0 0 0 0 0 0 0 0 0
1 1 1 1 1 1 1 0 0 0 0 0 0 0 0 0 0 0 0 0 0 0 0 0 0 0 0 0 0 0 0 0 0 0 0 0 0 0 0 0 0 0 0
1 1 1 1 1 1 1 1 0 0 0 0 0 0 0 0 0 0 0 0 0 0 0 0 0 0 0 0 0 0 -0 -0 0 0 0 0 0 0 0 0 0 0 0
1 1 1 1 1 1 1 1 0 0 0 0 0 0 0 0 0 0 0 0 0 0 0 0 0 0 0 0 -0 -0 -0 -0 -0 0 0 0 0 0 0 0 0 0 0
1 1 1 1 1 1 1 0 0 0 0 0 0 0 0 0 0 0 0 0 0 0 0 0 0 0 0 0 -0 -0 -0 -0 -0 -0 0 0 0 0 0 0 0 0 0
1 1 1 1 1 0 0 0 0 0 0 0 0 0 0 0 0 0 0 0 0 0 0 0 0 0 0 0 0 -0 -0 -0 -0 -0 -0 0 0 0 0 0 0 0 0
0 0 0 0 0 0 0 0 0 0 0 0 0 0 0 0 0 0 0 0 0 0 0 0 0 0 0 0 0 -0 -0 -0 0 0 -0 -0 0 0 0 0 0 0 0
0 0 0 0 0 0 0 0 0 0 0 0 0 0 0 0 0 0 0 0 0 0 0 0 0 0 0 0 0 0 -0 0 0 0 0 -0 0 0 0 0 0 0 0
0 0 0 0 0 0 0 0 0 0 0 0 0 0 0 0 0 0 0 0 0 0 0 0 0 0 0 0 0 0 0 0 0 0 0 0 -0 -0 -0 0 0 0 0
Wind_Speed
11 13 19 20 20 19 19 18 18 18 18 17 17 17 17 16 16 16 15 15 14 14 13 13 13 13 13 13 14 14 14 14 14 15 16 15 15 16 16 17 15 12 17
15 16 20 20 20 20 19 18 18 17 17 17 17 16 16 15 15 15 15 14 14 13 13 13 13 13 13 13 13 13 13 13 14 15 15 14 15 15 15 16 14 10 16
18 16 19 20 20 20 19 18 18 17 17 16 16 16 15 15 15 15 14 14 14 13 13 13 12 12 12 12 12 12 12 12 13 15 13 7 9 14 15 16 16 15 15
18 15 16 22 21 20 19 18 18 17 17 16 16 15 15 14 14 14 14 14 14 13 13 12 12 12 11 11 11 11 10 11 12 13 6 5 7 14 15 15 15 15 15
15 13 17 23 22 21 20 18 18 17 17 16 16 15 15 14 14 14 14 13 13 13 12 12 11 11 10 10 9 9 8 8 10 10 5 5 6 12 14 14 14 14 14
14 13 16 22 21 21 20 19 18 17 17 16 16 15 15 14 14 14 13 13 13 12 12 11 10 10 9 9 8 7 6 7 9 6 6 5 5 11 14 14 13 13 13
14 12 15 22 21 21 20 19 18 17 17 16 16 15 14 14 14 13 13 13 12 12 11 10 9 8 8 8 7 6 6 9 7 6 5 5 6 11 13 13 13 13 13
15 12 14 21 22 21 20 19 18 18 17 16 15 15 14 14 13 13 13 12 12 11 10 9 8 7 6 6 6 6 7 9 9 8 6 5 9 12 13 12 12 12 12
13 12 10 12 16 20 19 19 18 17 17 16 15 15 14 14 13 13 12 11 11 10 9 8 6 5 4 4 4 6 7 10 6 5 8 5 10 12 13 13 12 12 12
10 11 10 9 9 10 12 18 18 17 17 16 15 15 14 13 13 13 11 10 10 9 8 7 5 3 2 2 3 4 7 9 4 4 3 6 12 13 13 13 12 12 12
12 9 10 9 9 8 9 14 14 16 15 14 12 15 12 5 6 7 9 11 10 9 8 6 5 3 1 1 1 4 6 3 4 2 2 8 12 13 13 13 12 12 12
14 12 10 10 10 9 9 8 5 6 7 6 5 6 4 4 4 6 8 11 10 9 7 6 5 3 1 1 1 2 2 4 4 3 4 10 12 13 13 13 12 12 12
15 13 12 11 10 8 6 6 4 3 4 4 5 5 4 3 3 3 3 4 4 5 3 3 2 1 1 1 1 1 2 3 3 3 4 10 11 12 13 13 13 12 12
14 13 12 11 9 8 7 6 5 4 4 4 5 5 4 3 3 3 2 2 2 2 2 2 1 2 2 2 3 3 4 3 3 2 4 11 11 12 13 13 13 13 12
14 13 13 11 10 8 7 6 7 5 5 5 4 5 5 4 4 4 3 2 3 2 3 2 2 2 1 2 3 4 4 4 4 4 3 11 12 12 13 14 13 13 13
14 13 12 12 10 8 6 5 6 5 5 4 4 5 6 4 4 4 4 3 3 3 3 3 3 2 2 2 2 3 4 4 4 4 4 6 11 11 11 13 13 13 13
15 14 13 13 11 9 8 7 6 5 5 4 4 5 5 5 5 4 4 3 3 2 3 2 2 2 2 2 2 2 2 3 4 5 4 3 4 9 11 11 12 13 13
14 14 13 13 12 10 8 6 5 5 5 4 4 4 5 5 5 4 3 3 3 3 3 3 2 2 2 1 1 1 1 2 3 4 3 3 3 4 6 10 10 11 12
14 13 12 11 12 10 8 6 5 5 5 4 4 3 4 5 5 4 3 3 3 3 3 3 2 2 2 1 1 1 1 2 2 3 3 3 3 3 3 6 9 10 11
11 11 11 9 9 9 7 5 4 4 4 4 4 4 5 4 5 4 3 3 4 3 2 2 3 2 1 1 0 0 1 1 1 2 3 3 3 4 3 3 3 5 9
10 10 10 10 9 8 6 6 5 4 4 4 4 5 5 5 5 4 3 3 4 3 3 3 3 2 1 1 2 2 3 1 1 1 1 1 2 2 3 3 2 2 2
11 12 10 10 9 8 6 5 4 4 3 3 3 4 5 5 5 5 5 4 4 3 3 3 3 2 1 1 3 2 2 4 3 1 0 2 2 1 2 3 2 2 2
10 11 11 10 9 9 8 5 5 3 3 2 3 3 4 5 5 5 5 4 4 4 3 3 3 4 2 1 1 4 3 2 2 3 2 1 1 1 2 2 3 3 3
10 10 8 10 10 9 9 8 8 6 5 4 4 3 3 4 5 5 6 5 4 4 4 3 3 3 3 1 1 1 2 4 3 1 3 2 1 1 2 2 2 3 3
10 9 8 9 9 8 8 9 8 6 4 3 3 4 3 3 4 5 5 5 5 4 4 4 4 3 3 3 2 1 2 2 2 3 1 3 3 2 2 2 2 2 3
8 9 9 10 9 8 8 8 8 8 7 7 5 5 4 2 2 4 5 5 5 4 4 4 4 5 3 3 2 2 2 2 2 2 2 1 2 3 2 2 2 2 2
Wind_Direction
150 151 146 139 132 127 122 118 115 112 110 107 105 104 103 104 105 107 108 109 109 108 107 106 104 101 103 104 105 107 110 112 113 114 116 115 116 116 113 111 107 106 108
146 150 145 140 135 131 127 124 121 118 116 114 112 110 109 108 109 109 110 111 110 109 108 107 104 102 102 103 104 107 111 113 112 112 112 113 116 116 114 112 110 113 112
142 146 145 141 138 135 132 130 128 125 123 121 119 117 115 113 113 113 113 114 112 111 109 108 106 104 102 101 102 105 109 112 113 110 106 101 111 115 115 115 114 113 112
142 144 145 142 140 138 136 135 133 130 128 126 124 123 120 119 118 116 116 117 116 114 112 110 108 104 101 100 101 103 109 114 117 114 102 102 110 117 116 116 116 115 114
139 142 147 144 142 141 140 138 136 135 133 132 130 128 125 123 122 120 120 119 118 117 115 113 109 105 102 100 100 102 109 118 124 115 101 95 104 121 120 119 119 118 117
139 141 146 144 144 143 143 142 140 140 138 136 134 132 130 128 127 125 124 122 121 120 118 116 112 109 104 98 94 94 102 120 119 116 115 112 115 124 124 124 123 121 120
140 142 146 145 145 145 145 145 144 143 142 140 138 136 134 133 132 130 127 126 126 125 123 120 116 110 102 93 84 79 88 124 124 124 124 122 127 128 127 126 126 126 125
142 142 145 147 147 147 148 148 147 147 146 144 143 141 138 136 135 133 133 131 130 129 128 126 122 115 104 92 82 78 89 121 129 135 133 132 137 134 132 131 130 130 130
143 142 142 148 149 149 150 151 151 150 149 148 147 146 144 143 141 139 138 137 136 135 134 134 131 124 109 91 80 84 98 122 127 138 142 140 144 142 140 138 137 136 136
143 144 143 145 145 147 151 154 155 154 154 153 152 152 151 150 148 148 146 147 146 145 146 147 146 139 119 75 65 89 109 119 132 130 128 153 153 150 148 147 146 145 144
152 151 148 148 147 146 151 159 158 158 159 157 157 158 154 148 149 152 159 158 156 157 159 162 166 171 170 1 30 95 107 124 126 128 142 164 162 159 156 155 154 153 153
161 161 160 157 154 155 160 151 156 159 158 155 157 157 149 153 167 168 175 167 166 167 171 177 185 192 184 1 3 77 108 134 137 161 177 174 170 167 165 163 163 163 161
164 163 160 161 160 164 152 152 158 154 155 161 166 164 161 161 171 166 166 168 171 174 175 190 192 195 171 146 111 116 134 135 147 179 182 182 178 175 173 172 172 172 171
164 165 162 163 164 166 155 162 164 162 167 173 178 173 164 159 160 162 167 170 171 169 177 176 182 198 184 167 149 139 145 149 160 166 188 190 188 184 181 180 180 181 180
166 166 165 163 165 163 158 167 170 170 173 173 169 173 164 161 163 166 169 172 179 177 176 180 178 166 158 146 143 139 144 151 167 170 193 198 196 194 190 189 189 190 189
165 164 165 163 161 155 160 167 168 169 167 162 162 169 163 157 157 159 158 164 176 178 174 168 161 150 148 134 126 139 149 156 170 181 193 206 204 201 201 200 199 199 198
167 163 164 160 156 156 157 165 165 164 159 158 156 158 156 153 150 152 154 159 171 164 151 134 124 118 122 113 116 139 156 168 170 183 188 198 208 210 208 209 207 205 205
165 164 167 163 161 161 155 152 156 157 152 152 151 149 148 147 144 140 146 157 154 137 132 128 120 106 96 104 124 168 166 187 187 189 183 192 200 210 218 217 213 211 211
164 163 164 160 162 158 148 146 152 153 152 153 148 145 146 142 140 137 148 149 133 123 132 139 119 123 120 132 180 178 190 197 199 193 191 193 197 202 205 222 218 216 217
159 158 157 156 158 150 141 141 143 143 150 147 147 154 149 145 141 135 141 137 129 122 121 119 119 107 127 158 188 43 267 229 200 190 196 184 190 198 197 209 214 225 225
156 160 159 157 160 152 150 152 151 153 151 148 157 159 153 147 142 137 137 135 133 134 143 137 121 102 83 103 74 13 351 348 246 217 195 171 182 193 187 195 196 205 234
164 162 165 162 163 164 163 158 149 141 148 153 154 155 155 151 150 147 143 142 137 128 125 124 120 115 91 109 122 95 19 353 344 331 233 183 184 170 184 195 194 202 220
163 163 169 166 168 168 160 144 126 108 105 115 141 158 164 157 152 145 147 140 140 136 141 139 133 131 131 35 121 138 139 208 304 333 331 313 212 185 199 195 196 207 206
172 168 167 167 168 167 160 157 154 153 158 171 167 166 166 160 150 149 143 140 140 139 140 143 127 129 128 109 38 74 146 154 141 336 330 331 311 248 246 230 195 196 196
174 169 168 168 166 164 162 162 159 155 157 151 152 153 160 157 151 150 143 139 139 138 138 130 118 117 122 133 132 105 77 70 97 129 282 322 334 308 276 257 230 208 199
166 167 167 167 167 166 163 164 164 162 159 155 165 167 167 157 152 153 144 143 145 140 140 139 132 128 123 116 113 113 126 126 138 136 166 260 293 297 297 284 259 231 214